Weather History for Auburn, IN

Change the Weather History Date:

Sunday, March 10, 2013

  Actual Average (KFWA) Record (KFWA)
Temperature  
Mean Temperature 50 °F 36 °F  
Max Temperature 60 °F 45 °F 73 °F (1925)
Min Temperature 39 °F 27 °F 0 °F (1984)
Degree Days  
Heating Degree Days 16 29  
Month to date heating degree days 307  
Since 1 July heating degree days 4905  
Cooling Degree Days 0 0  
Month to date cooling degree days 0  
Year to date cooling degree days 0  
Moisture  
Dew Point 36 °F    
Average Humidity 60    
Maximum Humidity 76    
Minimum Humidity 47    
Precipitation  
Precipitation 0.01 in 0.08 in 1.53 in (2009)
Month to date precipitation 0.78  
Year to date precipitation 5.08  
Snow  
Snow 0.00 in 0.10 in 12.60 in (1964)
Month to date snowfall 1.8  
Since 1 July snowfall 30.2  
Snow Depth -    
Sea Level Pressure  
Sea Level Pressure 29.88 in    
Wind  
Wind Speed 4 mph (SSE)    
Max Wind Speed 10 mph    
Max Gust Speed 17 mph    
Visibility 10 miles    
Events Rain    
T = Trace of Precipitation, MM = Missing Value Source: NWS Daily Summary

Daily Weather History Graph

Daily Weather History Graph

Search for Another Location

Airport:

Trip Planner

Search our weather history database for the weather conditions in past years. The results will help you decide how hot, cold, wet, or windy it might be!

Date:

Astronomy

Mar. 10, 2013 Rise Set
Actual Time 7:59 AM EDT 7:41 PM EDT
Civil Twilight 7:32 AM EDT 8:09 PM EDT
Nautical Twilight 7:00 AM EDT 8:41 PM EDT
Astronomical Twilight 6:28 AM EDT 9:13 PM EDT
Moon 6:59 AM EDT (3/10) 6:48 PM EDT (3/10)
Length of Visible Light 12h 36m
Length of Day
11h 41m
Waning Crescent, 2% of the Moon is Illuminated
Mar 10
Waning Crescent
Mar 11
New
Mar 19
First Quarter
Mar 27
Full
Apr 3
Last Quarter

Hourly Weather History & Observations

Time (EDT) Temp. Windchill Dew Point Humidity Pressure Visibility Wind Dir Wind Speed Gust Speed Precip Events Conditions
12:15 AM 41.0 °F 39.0 °F 32.0 °F 70% 29.98 in 10.0 mi SE 3.5 mph - N/A   Scattered Clouds
12:35 AM 41.0 °F 39.0 °F 32.0 °F 70% 29.98 in 10.0 mi ESE 3.5 mph - N/A   Scattered Clouds
12:55 AM 39.2 °F - 32.0 °F 75% 29.98 in 10.0 mi Calm Calm - N/A   Scattered Clouds
1:15 AM 39.2 °F 37.0 °F 32.0 °F 75% 29.97 in 10.0 mi ESE 3.5 mph - N/A   Clear
1:35 AM 39.2 °F 37.0 °F 32.0 °F 75% 29.97 in 10.0 mi ESE 3.5 mph - N/A   Clear
1:55 AM 39.2 °F 37.0 °F 32.0 °F 75% 29.97 in 10.0 mi ESE 3.5 mph - N/A   Clear
3:15 AM 39.2 °F 37.0 °F 32.0 °F 75% 29.96 in 10.0 mi ESE 3.5 mph - N/A   Clear
3:35 AM 39.2 °F - 32.0 °F 75% 29.95 in 10.0 mi Calm Calm - N/A   Clear
3:55 AM 39.2 °F - 32.0 °F 75% 29.95 in 10.0 mi Calm Calm - N/A   Clear
4:15 AM 39.2 °F 35.9 °F 32.0 °F 75% 29.94 in 10.0 mi ESE 4.6 mph - N/A   Mostly Cloudy
4:35 AM 41.0 °F 39.0 °F 32.0 °F 70% 29.93 in 10.0 mi East 3.5 mph - N/A   Overcast
4:55 AM 41.0 °F 39.0 °F 32.0 °F 70% 29.93 in 10.0 mi ESE 3.5 mph - N/A   Overcast
5:15 AM 41.0 °F 39.0 °F 32.0 °F 70% 29.93 in 10.0 mi ESE 3.5 mph - N/A   Overcast
5:35 AM 41.0 °F - 32.0 °F 70% 29.93 in 10.0 mi Calm Calm - N/A Rain Light Rain
5:55 AM 41.0 °F 39.0 °F 33.8 °F 76% 29.93 in 10.0 mi SE 3.5 mph - N/A   Overcast
6:15 AM 41.0 °F - 33.8 °F 76% 29.94 in 10.0 mi Calm Calm - N/A   Overcast
6:35 AM 41.0 °F 39.0 °F 32.0 °F 70% 29.93 in 10.0 mi ESE 3.5 mph - N/A   Mostly Cloudy
6:55 AM 41.0 °F - 32.0 °F 70% 29.95 in 10.0 mi Calm Calm - N/A   Mostly Cloudy
7:15 AM 42.8 °F 41.1 °F 32.0 °F 66% 29.94 in 10.0 mi ESE 3.5 mph - N/A   Mostly Cloudy
8:35 AM 42.8 °F - 32.0 °F 66% 29.94 in 10.0 mi Calm Calm - N/A   Overcast
8:55 AM 42.8 °F 41.1 °F 32.0 °F 66% 29.94 in 10.0 mi SSE 3.5 mph - N/A   Scattered Clouds
9:15 AM 42.8 °F 41.1 °F 32.0 °F 66% 29.94 in 10.0 mi SE 3.5 mph - N/A   Scattered Clouds
9:35 AM 44.6 °F 43.1 °F 32.0 °F 61% 29.93 in 10.0 mi SSE 3.5 mph - N/A   Scattered Clouds
9:55 AM 42.8 °F 41.1 °F 32.0 °F 66% 29.93 in 10.0 mi SSE 3.5 mph - N/A   Mostly Cloudy
10:15 AM 44.6 °F - 32.0 °F 61% 29.93 in 10.0 mi Calm Calm - N/A   Scattered Clouds
10:35 AM 44.6 °F - 33.8 °F 66% 29.92 in 10.0 mi Calm Calm - N/A   Clear
10:55 AM 46.4 °F 45.2 °F 33.8 °F 62% 29.93 in 10.0 mi South 3.5 mph - N/A   Clear
11:15 AM 46.4 °F 45.2 °F 33.8 °F 62% 29.92 in 10.0 mi South 3.5 mph - N/A   Scattered Clouds
11:35 AM 48.2 °F - 33.8 °F 58% 29.93 in 10.0 mi South 5.8 mph - N/A   Clear
11:55 AM 51.8 °F - 35.6 °F 54% 29.92 in 10.0 mi South 4.6 mph - N/A   Clear
12:15 PM 53.6 °F - 35.6 °F 51% 29.92 in 10.0 mi South 9.2 mph - N/A   Clear
12:35 PM 51.8 °F - 33.8 °F 50% 29.92 in 10.0 mi South 9.2 mph 16.1 mph N/A   Clear
12:55 PM 53.6 °F - 35.6 °F 51% 29.91 in 10.0 mi South 5.8 mph - N/A   Clear
1:15 PM 55.4 °F - 35.6 °F 47% 29.90 in 10.0 mi South 8.1 mph - N/A   Clear
1:35 PM 53.6 °F - 35.6 °F 51% 29.90 in 10.0 mi South 6.9 mph - N/A   Clear
1:55 PM 53.6 °F - 37.4 °F 54% 29.89 in 10.0 mi South 6.9 mph - N/A   Clear
2:15 PM 55.4 °F - 37.4 °F 51% 29.89 in 10.0 mi South 4.6 mph - N/A   Clear
2:35 PM 55.4 °F - 37.4 °F 51% 29.90 in 10.0 mi South 6.9 mph - N/A   Clear
2:55 PM 57.2 °F - 37.4 °F 48% 29.89 in 10.0 mi South 8.1 mph - N/A   Clear
3:15 PM 57.2 °F - 39.2 °F 51% 29.87 in 10.0 mi South 3.5 mph - N/A   Scattered Clouds
3:35 PM 59.0 °F - 41.0 °F 51% 29.86 in 10.0 mi South 4.6 mph - N/A   Scattered Clouds
3:55 PM 60.8 °F - 41.0 °F 48% 29.84 in 10.0 mi SSE 5.8 mph - N/A   Clear
4:15 PM 59.0 °F - 39.2 °F 48% 29.83 in 10.0 mi SSE 3.5 mph - N/A   Clear
4:35 PM 59.0 °F - 41.0 °F 51% 29.84 in 10.0 mi SSE 5.8 mph - N/A   Clear
4:55 PM 59.0 °F - 41.0 °F 51% 29.85 in 10.0 mi SSE 4.6 mph - N/A   Clear
5:15 PM 57.2 °F - 41.0 °F 55% 29.85 in 10.0 mi SE 4.6 mph - N/A   Clear
5:35 PM 59.0 °F - 41.0 °F 51% 29.85 in 10.0 mi SSE 4.6 mph - N/A   Clear
5:55 PM 57.2 °F - 41.0 °F 55% 29.84 in 10.0 mi SE 4.6 mph - N/A   Clear
6:15 PM 57.2 °F - 39.2 °F 51% 29.82 in 10.0 mi ESE 5.8 mph - N/A   Clear
6:35 PM 55.4 °F - 41.0 °F 58% 29.80 in 10.0 mi ESE 5.8 mph - N/A   Clear
6:55 PM 55.4 °F - 39.2 °F 54% 29.80 in 10.0 mi SE 4.6 mph - N/A   Clear
7:15 PM 55.4 °F - 39.2 °F 54% 29.81 in 10.0 mi ESE 4.6 mph - N/A   Clear
7:35 PM 55.4 °F - 39.2 °F 54% 29.82 in 10.0 mi SE 4.6 mph - N/A   Clear
7:55 PM 53.6 °F - 39.2 °F 58% 29.81 in 10.0 mi SE 5.8 mph - N/A   Clear
8:15 PM 53.6 °F - 37.4 °F 54% 29.82 in 10.0 mi SSE 4.6 mph - N/A   Mostly Cloudy
8:35 PM 53.6 °F - 37.4 °F 54% 29.81 in 10.0 mi SE 5.8 mph - N/A Rain Rain
8:55 PM 55.4 °F - 37.4 °F 51% 29.80 in 10.0 mi SSE 9.2 mph - N/A   Overcast
9:15 PM 53.6 °F - 35.6 °F 51% 29.80 in 10.0 mi SE 5.8 mph - N/A   Mostly Cloudy
9:35 PM 53.6 °F - 37.4 °F 54% 29.79 in 10.0 mi ESE 6.9 mph - N/A   Overcast
10:15 PM 51.8 °F - 37.4 °F 58% 29.81 in 10.0 mi South 3.5 mph - N/A Rain Light Rain
10:35 PM 51.8 °F - 37.4 °F 58% 29.80 in 10.0 mi South 3.5 mph - 0.01 in Rain Light Rain
10:55 PM 53.6 °F - 37.4 °F 54% 29.78 in 10.0 mi SSE 10.4 mph 17.3 mph 0.01 in Rain Light Rain
11:15 PM 55.4 °F - 35.6 °F 47% 29.78 in 10.0 mi SSE 6.9 mph - N/A   Overcast
11:35 PM 55.4 °F - 35.6 °F 47% 29.77 in 10.0 mi SSE 6.9 mph - N/A   Overcast
11:55 PM 53.6 °F - 35.6 °F 51% 29.78 in 10.0 mi South 5.8 mph - N/A   Mostly Cloudy
12:15 AM 53.6 °F - 35.6 °F 51% 29.77 in 10.0 mi SSE 4.6 mph - N/A   Overcast
12:35 AM 53.6 °F - 37.4 °F 54% 29.77 in 10.0 mi South 4.6 mph - N/A   Overcast
12:55 AM 53.6 °F - 37.4 °F 54% 29.75 in 10.0 mi SE 3.5 mph - N/A   Overcast